sat.trackr.live / text

‹ back to catalog

STARLINK-3254

NORAD 50204 · 2021-125BA

PAYLOAD ACTIVE UNKNOWN

§ Identity

Operator
Country
US
Launch date
2021-12-18
Launch site
AFWTR
Launch vehicle
Mass (kg)
RCS (m²)

Purposes: comms

External: N2YO · Heavens-Above · Gunter

§ Orbital elements

Epoch: 2026-05-25T00:56:03.189120Z

Period
95.44 min
Inclination
53.2156°
Eccentricity
0.0001024
Mean motion
15.08839381 rev/d
Perigee alt
539.0 km
Apogee alt
540.5 km
Semi-major
6,917.9 km
B*
1.1134e-5
RAAN
256.3841°
Arg perigee
84.3429°
Mean anomaly
275.7680°
Rev number
24,831

§ Raw data

STARLINK-32541 50204U 21125BA  26145.03892580 -.00000111  00000+0  11134-4 0  99922 50204  53.2156 256.3841 0001024  84.3429 275.7680 15.08839381248310

JSON: /api/v1/satellites/50204 · /tle

For live sub-satellite position, see the globe view (requires WebGL).

§ Visibility from observer

Set your observer location to see the next 7 days of passes ≥ 10°. The values pass through the URL so the page stays shareable.

No JS? Fill the form by hand. The geolocation button needs JavaScript.